Zurück zum Katalog

COSMOS 1579 COOLANT

LostLEO
NORAD 28273·DEBRIS·🇷🇺 Russia

Gestartet Jun 29, 1984 von Baikonur Cosmodrome

Loading…

Nächste Überflüge (nächste 24 Stunden)

TLE

VeraltetSource: Space-Track

Epoche: Oct 16, 2022, 22:53 UTC

1 28273U 84069AJ  22289.95411315  .00000145  00000-0  18526-3 0  9996
2 28273  65.0511 120.2440 0031698 116.5061 243.9260 13.91405966946618

Verfolge COSMOS 1579 COOLANT in Echtzeit mit AllMySat

Download on the App Store